When you browse on this site, cookies collect data to enhance your experience and personalize the content and advertising you see.
Visit our Privacy Policy to learn more. By continuing to use the site, you agree to this use of cookies and data.
  • In Latvia
  • List of Countries
  • For 7 days
  • Water Temperature
  • Satellite Maps
  • Weather Map
  • Weather Widgets
  • user-avatar
    Login

    Hourly Weather Satif

    Today, 23 January, Wednesday

    Time Temperature Precipitation Wind Pressure Humidity
    00:00 -1°C° 0 mm 3 mps 663 mmHg 80%
    01:00 -1°C° 0 mm 3 mps 662 mmHg 82%
    02:00 -1°C° 0 mm 3 mps 662 mmHg 84%
    03:00 -1°C° 0 mm 2 mps 661 mmHg 85%
    04:00 -1°C° 0.1 mm 2 mps 661 mmHg 87%
    05:00 -1°C° 0.1 mm 2 mps 661 mmHg 88%
    06:00 +1°C° 0 mm 2 mps 661 mmHg 89%
    07:00 0°C° 0.7 mm 3 mps 661 mmHg 88%
    08:00 0°C° 0.7 mm 4 mps 661 mmHg 86%
    09:00 0°C° 0.7 mm 5 mps 661 mmHg 85%
    10:00 +1°C° 0.1 mm 5 mps 661 mmHg 81%
    11:00 +2°C° 0.1 mm 6 mps 661 mmHg 77%
    12:00 +3°C° 0.1 mm 7 mps 661 mmHg 73%
    13:00 +2°C° 0.3 mm 8 mps 660 mmHg 74%
    14:00 +2°C° 0.3 mm 8 mps 659 mmHg 75%
    15:00 +2°C° 0.3 mm 9 mps 659 mmHg 76%
    16:00 +2°C° 0.7 mm 9 mps 658 mmHg 80%
    17:00 +1°C° 0.7 mm 9 mps 657 mmHg 84%
    18:00 +1°C° 0.7 mm 9 mps 657 mmHg 88%
    19:00 +1°C° 1.7 mm 8 mps 657 mmHg 90%
    20:00 +2°C° 1.7 mm 7 mps 657 mmHg 91%
    21:00 +2°C° 1.7 mm 6 mps 657 mmHg 93%
    22:00 +2°C° 1 mm 7 mps 657 mmHg 91%
    23:00 +2°C° 1 mm 7 mps 656 mmHg 90%

    Tomorrow, 24 January, Thursday

    Time Temperature Precipitation Wind Pressure Humidity
    00:00 +1°C° 1 mm 8 mps 656 mmHg 89%
    01:00 0°C° 1.5 mm 9 mps 656 mmHg 89%
    02:00 0°C° 1.5 mm 10 mps 656 mmHg 89%
    03:00 -2°C° 1.5 mm 11 mps 656 mmHg 90%
    04:00 -1°C° 3.5 mm 9 mps 655 mmHg 92%
    05:00 -2°C° 3.5 mm 7 mps 655 mmHg 95%
    06:00 -1°C° 3.5 mm 4 mps 655 mmHg 97%
    07:00 -3°C° 1.8 mm 6 mps 656 mmHg 95%
    08:00 -4°C° 1.8 mm 8 mps 656 mmHg 92%
    09:00 -5°C° 1.8 mm 9 mps 657 mmHg 89%
    10:00 -5°C° 0.2 mm 10 mps 657 mmHg 86%
    11:00 -5°C° 0.2 mm 12 mps 658 mmHg 82%
    12:00 -5°C° 0.2 mm 13 mps 658 mmHg 79%
    13:00 -5°C° 0.1 mm 12 mps 658 mmHg 81%
    14:00 -4°C° 0.1 mm 11 mps 659 mmHg 83%
    15:00 -4°C° 0.1 mm 11 mps 659 mmHg 85%
    16:00 -4°C° 0.1 mm 9 mps 659 mmHg 87%
    17:00 -4°C° 0.1 mm 8 mps 660 mmHg 89%
    18:00 -4°C° 0.1 mm 7 mps 660 mmHg 92%
    19:00 -4°C° 0.2 mm 8 mps 661 mmHg 92%
    20:00 -4°C° 0.2 mm 8 mps 661 mmHg 92%
    21:00 -4°C° 0.2 mm 8 mps 662 mmHg 92%
    22:00 -4°C° 0.1 mm 8 mps 662 mmHg 93%
    23:00 -3°C° 0.1 mm 7 mps 662 mmHg 93%

    Day after tomorrow, 25 January, Friday

    Time Temperature Precipitation Wind Pressure Humidity
    00:00 -3°C° 0.1 mm 6 mps 663 mmHg 94%
    01:00 -3°C° 0.1 mm 6 mps 663 mmHg 94%
    02:00 -3°C° 0.1 mm 6 mps 663 mmHg 94%
    03:00 -3°C° 0.1 mm 6 mps 664 mmHg 94%
    04:00 -4°C° 0.1 mm 6 mps 664 mmHg 94%
    05:00 -4°C° 0.1 mm 5 mps 664 mmHg 93%
    06:00 -5°C° 0.1 mm 5 mps 664 mmHg 93%
    07:00 -3°C° 0.2 mm 4 mps 664 mmHg 94%
    08:00 -3°C° 0.2 mm 4 mps 665 mmHg 94%
    09:00 -2°C° 0.2 mm 4 mps 665 mmHg 95%
    10:00 -2°C° 0.2 mm 4 mps 665 mmHg 96%
    11:00 -2°C° 0.2 mm 4 mps 665 mmHg 96%
    12:00 -1°C° 0.2 mm 4 mps 665 mmHg 97%
    13:00 -1°C° 0.1 mm 5 mps 665 mmHg 95%
    14:00 -1°C° 0.1 mm 5 mps 665 mmHg 93%
    15:00 -1°C° 0.1 mm 6 mps 665 mmHg 92%
    16:00 -1°C° 0 mm 5 mps 665 mmHg 90%
    17:00 -2°C° 0 mm 4 mps 665 mmHg 89%
    18:00 -2°C° 0 mm 3 mps 665 mmHg 88%
    19:00 -3°C° 0 mm 4 mps 665 mmHg 88%
    20:00 -3°C° 0 mm 4 mps 665 mmHg 88%
    21:00 -3°C° 0 mm 4 mps 664 mmHg 89%
    22:00 -2°C° 0.7 mm 4 mps 665 mmHg 91%
    23:00 -2°C° 0.7 mm 4 mps 665 mmHg 94%

    26 January, Saturday

    Time Temperature Precipitation Wind Pressure Humidity
    00:00 -1°C° 0.7 mm 4 mps 665 mmHg 97%
    01:00 -1°C° 0.1 mm 4 mps 665 mmHg 98%
    02:00 -1°C° 0.1 mm 5 mps 665 mmHg 98%
    03:00 -1°C° 0.1 mm 5 mps 666 mmHg 99%
    04:00 -1°C° 0 mm 5 mps 666 mmHg 98%
    05:00 -2°C° 0 mm 6 mps 666 mmHg 98%
    06:00 -2°C° 0 mm 6 mps 667 mmHg 97%
    07:00 -2°C° 0.1 mm 6 mps 667 mmHg 97%
    08:00 -2°C° 0.1 mm 6 mps 668 mmHg 96%
    09:00 -2°C° 0.1 mm 7 mps 669 mmHg 96%
    10:00 -2°C° 0 mm 7 mps 669 mmHg 95%
    11:00 -2°C° 0 mm 7 mps 669 mmHg 95%
    12:00 -1°C° 0 mm 7 mps 670 mmHg 94%
    13:00 -1°C° 0 mm 6 mps 669 mmHg 93%
    14:00 0°C° 0 mm 5 mps 669 mmHg 92%
    15:00 0°C° 0 mm 4 mps 669 mmHg 90%
    16:00 0°C° 0 mm 4 mps 669 mmHg 91%
    17:00 0°C° 0 mm 3 mps 669 mmHg 91%
    18:00 -1°C° 0 mm 2 mps 669 mmHg 92%
    19:00 -1°C° 0 mm 2 mps 669 mmHg 92%
    20:00 -1°C° 0 mm 2 mps 669 mmHg 92%
    21:00 -2°C° 0 mm 2 mps 669 mmHg 92%
    22:00 -2°C° 0 mm 2 mps 669 mmHg 90%
    23:00 -2°C° 0 mm 2 mps 669 mmHg 88%

    27 January, Sunday

    Time Temperature Precipitation Wind Pressure Humidity
    00:00 -2°C° 0 mm 2 mps 668 mmHg 86%
    01:00 -1°C° 0 mm 2 mps 668 mmHg 84%
    02:00 -1°C° 0 mm 2 mps 668 mmHg 82%
    03:00 -1°C° 0 mm 2 mps 667 mmHg 80%
    04:00 -1°C° 0 mm 2 mps 667 mmHg 81%
    05:00 -1°C° 0 mm 2 mps 667 mmHg 81%
    06:00 -1°C° 0 mm 2 mps 666 mmHg 81%
    07:00 +1°C° 0 mm 2 mps 667 mmHg 83%
    08:00 +2°C° 0 mm 2 mps 667 mmHg 85%
    09:00 +2°C° 0 mm 3 mps 667 mmHg 87%
    10:00 +3°C° 0 mm 3 mps 667 mmHg 85%
    11:00 +4°C° 0 mm 4 mps 666 mmHg 83%
    12:00 +5°C° 0 mm 4 mps 666 mmHg 81%
    13:00 +5°C° 0 mm 4 mps 666 mmHg 81%
    14:00 +5°C° 0 mm 4 mps 665 mmHg 81%
    15:00 +5°C° 0 mm 4 mps 665 mmHg 81%
    16:00 +4°C° 0.3 mm 3 mps 664 mmHg 85%
    17:00 +4°C° 0.3 mm 3 mps 664 mmHg 88%
    18:00 +4°C° 0.3 mm 2 mps 664 mmHg 92%
    19:00 +3°C° 0.1 mm 2 mps 664 mmHg 94%
    20:00 +3°C° 0.1 mm 2 mps 664 mmHg 95%
    21:00 +3°C° 0.1 mm 2 mps 664 mmHg 97%
    22:00 +2°C° 0.2 mm 2 mps 664 mmHg 97%
    23:00 +1°C° 0.2 mm 3 mps 664 mmHg 97%

    28 January, Monday

    Time Temperature Precipitation Wind Pressure Humidity
    00:00 +1°C° 0.2 mm 3 mps 664 mmHg 97%
    01:00 -1°C° 0.4 mm 4 mps 663 mmHg 95%
    02:00 -2°C° 0.4 mm 4 mps 663 mmHg 93%
    03:00 -2°C° 0.4 mm 5 mps 663 mmHg 90%
    04:00 -2°C° 0.8 mm 4 mps 663 mmHg 92%
    05:00 -1°C° 0.8 mm 3 mps 663 mmHg 93%
    06:00 -1°C° 0.8 mm 3 mps 663 mmHg 95%
    07:00 -1°C° 0.7 mm 3 mps 663 mmHg 93%
    08:00 -2°C° 0.7 mm 4 mps 663 mmHg 91%
    09:00 -2°C° 0.7 mm 5 mps 663 mmHg 89%
    10:00 -2°C° 0.4 mm 5 mps 663 mmHg 87%
    11:00 -2°C° 0.4 mm 5 mps 663 mmHg 86%
    12:00 -1°C° 0.4 mm 5 mps 663 mmHg 84%
    13:00 -1°C° 0.3 mm 5 mps 663 mmHg 82%
    14:00 -1°C° 0.3 mm 5 mps 663 mmHg 80%
    15:00 -3°C° 0.3 mm 6 mps 663 mmHg 78%
    16:00 -2°C° 0.2 mm 5 mps 663 mmHg 82%
    17:00 -3°C° 0.2 mm 4 mps 663 mmHg 85%
    18:00 -2°C° 0.2 mm 3 mps 664 mmHg 89%
    19:00 -4°C° 0.1 mm 3 mps 664 mmHg 89%
    20:00 -4°C° 0.1 mm 3 mps 664 mmHg 89%
    21:00 -3°C° 0.1 mm 2 mps 664 mmHg 90%
    22:00 -3°C° 0.4 mm 2 mps 664 mmHg 90%
    23:00 -3°C° 0.4 mm 2 mps 663 mmHg 91%
    Show more